Flag for Paraguay Weather past 2 weeks in Ciudad del Este, Paraguay

Now
77 °F

Sunny.


Feels Like: 79 °F
Forecast: 71 / 95 °F
Wind: 3 mph from Northeast

Location: Foz Do Iguacu Aeroporto

Current Time: Jan 26, 2015 at 10:04:47 AM

Latest Report: Jan 26, 2015 at 9:00 AM


Visibility: 10 mi

Pressure: 29.92 "Hg

Humidity: 79%

Dew point: 70 °F

Location of Ciudad del EsteLocation

Historic Weather in Ciudad del Este — Graph

°F

Ciudad del Este temperature yesterday

Maximum temperature yesterday: 91 °F (at 12:00 PM)
Minimum temperature yesterday: 70 °F (at 7:00 PM)
Average temperature yesterday: 77 °F

Past Weeks' High & Low Weather Summary

 TemperatureHumidityPressure
High97 °F (Jan 12, 2:00 PM)100% (Jan 14, 7:00 PM)30.04 "Hg (Jan 14, 7:00 PM)
Low36 °F (Jan 14, 7:00 PM)39% (Jan 19, 5:00 PM)29.36 "Hg (Jan 22, 1:00 AM)
Average80 °F77%29.91 "Hg
* Reported Jan 11 9:00 AM — Jan 26 9:00 AM, Ciudad del Este, Weather by CustomWeather, © 2014

Note: Actual official high and low records may vary slightly from our data, if they occured in-between our weather recording intervals... More about our weather records

Advertising

Ciudad del Este weather history for previous 24 hours

 ConditionsComfort  
Time TempWeatherWind HumidityBarometerVisibility
9:00 AM
Jan 26
77 °FSunny.3 mph79%29.92 "Hg10 mi
8:00 AM75 °FSunny.3 mph83%29.92 "Hg10 mi
7:00 AM70 °FScattered clouds.1 mph100%29.92 "HgN/A
6:00 AM68 °FPassing clouds.2 mph100%29.89 "HgN/A
5:00 AM68 °FClear.2 mph100%29.86 "Hg10 mi
4:00 AM68 °FClear.3 mph100%29.86 "Hg10 mi
3:00 AM70 °FPassing clouds.2 mph94%29.86 "HgN/A
2:00 AM68 °FPassing clouds.No wind100%29.86 "HgN/A
1:00 AM70 °FPassing clouds.2 mph94%29.89 "HgN/A
12:00 AM72 °FPassing clouds.2 mph88%29.89 "HgN/A
11:00 PM
Jan 25
72 °FPassing clouds.5 mph94%29.89 "HgN/A
10:00 PM72 °FPassing clouds.3 mph94%29.86 "HgN/A
9:00 PM72 °FPartly cloudy.10 mph94%29.86 "HgN/A
8:00 PM72 °FLight rain. Partly cloudy.6 mph94%N/AN/A
7:00 PM70 °FScattered clouds.3 mph94%29.89 "HgN/A
6:00 PM72 °FThunderstorms. Partly sunny.8 mph94%29.86 "HgN/A
5:00 PM77 °FThunderstorms. Partly sunny.5 mph79%29.86 "Hg2 mi
4:00 PM86 °FThunderstorms. Partly sunny.7 mph59%29.83 "HgN/A
3:00 PM84 °FThunderstorms. Partly sunny.8 mph62%29.83 "HgN/A
2:00 PM90 °FThunderstorms. Scattered clouds.7 mph55%29.86 "HgN/A
1:00 PM91 °FScattered clouds.8 mph52%29.86 "HgN/A
12:00 PM91 °FScattered clouds.10 mph52%29.86 "HgN/A
11:00 AM90 °FScattered clouds.8 mph52%29.86 "HgN/A
10:00 AM84 °FPassing clouds.9 mph62%29.89 "HgN/A
Weather by CustomWeather, © 2014

See weather overviewHow to use our weather pages